Regional Weather Roundup
Issued by NWS

Home | Current Version | Previous Version | Text Only | Print | Product List | Glossary Off
Versions: 1 2 3 4 5 6 7 8 9 10 11 12 13 14 15 16 17 18 19 20 21 22 23 24 25 26 27 28 29 30 31 32 33 34 35 36 37 38 39 40 41 42 43 44 45 46 47 48 49 50

000
ASUS43 KLMK 251110
RWRKY
KENTUCKY REGIONAL WEATHER ROUNDUP
NATIONAL WEATHER SERVICE LOUISVILLE KY
600 AM EST SUN JAN 25 2015

NOTE "FAIR" INDICATES FEW OR NO CLOUDS BELOW 12,000 FEET
WITH NO SIGNIFICANT WEATHER AND/OR OBSTRUCTIONS TO VISIBILITY.

KYZ001>023-026-027-061>063-070>075-251200-
WESTERN AND SOUTH CENTRAL KENTUCKY

CITY           SKY/WX    TMP DP  RH WIND       PRES   REMARKS
PADUCAH        CLOUDY    42  32  67 SW10      29.71F
HENDERSON      CLOUDY    43  30  61 SW12      29.69S
OWENSBORO      CLOUDY    40  33  76 S9        29.71F WCI  34
HOPKINSVILLE   MOCLDY    40  32  73 S10       29.75F WCI  34
BOWLING GREEN  CLOUDY    38  30  73 S7        29.78F WCI  33
GLASGOW        MOCLDY    36  31  81 S5        29.78F WCI  32
$$

KYZ024-025-028>034-038-045-046-053-251200-
NORTH CENTRAL KENTUCKY

CITY           SKY/WX    TMP DP  RH WIND       PRES   REMARKS
LOUISVILLE/SDF CLOUDY    39  30  70 SE8       29.73F WCI  33
LOUISVILLE/LOU CLOUDY    39  30  70 S6        29.74F WCI  35
FORT KNOX      CLOUDY    38  30  74 S9        29.72F WCI  31
$$

KYZ035>037-039>044-047>052-055>060-089>105-251200-
NORTHEAST KENTUCKY

CITY           SKY/WX    TMP DP  RH WIND       PRES   REMARKS
LEXINGTON      CLOUDY    35  30  82 S10       29.77F WCI  27
COVINGTON      CLOUDY    36  30  79 S8        29.72F WCI  30
FRANKFORT      CLOUDY    37  30  75 S12       29.75F WCI  29
$$

KYZ054-064>069-076>088-106>120-251200-
SOUTHEAST KENTUCKY

CITY           SKY/WX    TMP DP  RH WIND       PRES   REMARKS
JACKSON        CLEAR     34  29  82 S5        29.80S WCI  30
LONDON         PTCLDY    35  26  69 S7        29.82F WCI  29
SOMERSET       MOCLDY    32  30  93 CALM      29.83F
MIDDLESBORO    PTCLDY    26  25  97 CALM      29.88S
MONTICELLO     MOSUNNY   39  32  76 S7        29.83F WCI  34
$$




USA.gov is the U.S. government's official web portal to all federal, state and local government web resources and services.